Temp
13 12 12 14 15 15 14 12 12 13 13 13 13 12 11 11 11 10 10 10 10 11 11 11 11 11 13 15 15 16 15 16 16 15 15 14 15 15 14 13 13 13 13
12 12 13 14 15 14 13 12 12 13 13 13 12 11 11 11 10 10 10 10 10 10 11 11 11 10 11 12 13 13 14 14 14 13 14 14 15 14 14 13 13 11 11
12 12 12 12 14 13 13 12 12 13 13 12 12 11 11 11 10 10 10 10 10 11 10 11 11 10 10 12 11 12 12 13 13 12 13 13 13 14 14 13 11 10 9
12 12 11 11 12 13 13 12 12 12 12 11 11 11 11 11 10 10 10 9 9 10 10 10 10 11 11 11 10 11 13 13 12 11 11 11 12 12 12 11 10 8 6
11 11 11 11 12 13 13 12 12 12 12 12 11 11 11 11 10 10 10 9 9 10 10 10 11 11 11 11 11 11 12 12 11 10 10 10 11 11 10 11 10 8 4
11 11 11 11 11 12 13 12 12 12 12 12 11 11 11 11 11 10 10 10 10 10 10 10 10 10 10 11 11 11 10 10 10 10 10 10 10 10 10 10 9 4 1
11 11 11 12 11 11 12 12 12 12 12 12 12 11 11 11 11 10 10 10 10 10 10 10 10 10 10 10 10 10 10 11 10 10 10 10 10 10 10 9 6 3 -0
10 11 11 11 12 12 12 12 12 13 13 13 12 12 11 11 11 10 10 10 10 10 10 10 10 10 10 10 10 10 9 8 8 8 7 7 6 7 5 5 4 1 -3
4 4 5 7 9 11 11 12 12 12 12 12 12 12 11 10 11 11 10 10 11 11 11 10 11 10 11 10 10 7 2 -0 -2 -1 -3 -3 -1 1 1 1 -2 -3 -5
1 1 2 3 5 6 8 10 11 12 11 11 10 10 10 9 10 10 10 9 9 10 11 10 11 11 11 10 8 5 -1 -5 -4 -5 -4 -3 -3 -3 -3 -3 -3 -5 -6
-0 -0 -0 1 2 3 4 6 8 10 9 6 5 4 5 5 6 8 9 9 8 8 5 4 5 7 7 4 4 1 -3 -5 -6 -5 -5 -5 -5 -5 -5 -4 -4 -5 -7
-1 -1 -1 -1 -1 0 1 2 2 3 1 -0 -0 -1 -1 -0 2 5 6 7 6 5 1 -0 -1 1 0 0 -1 -3 -4 -4 -6 -7 -8 -9 -9 -9 -9 -8 -8 -7 -8
-2 -2 -2 -2 -2 -2 -1 -1 -1 -1 -1 -2 -3 -4 -4 -4 -3 -2 -1 -0 -0 -2 -4 -5 -6 -6 -6 -7 -8 -7 -6 -7 -8 -9 -10 -10 -10 -10 -10 -11 -11 -11 -11
-2 -2 -3 -4 -4 -3 -3 -3 -2 -2 -3 -3 -4 -5 -5 -6 -5 -5 -6 -6 -7 -7 -7 -7 -7 -7 -7 -7 -6 -6 -7 -8 -8 -9 -10 -10 -10 -10 -10 -10 -10 -10 -10
-1 -2 -2 -3 -4 -4 -5 -4 -4 -4 -4 -4 -5 -5 -5 -6 -6 -6 -6 -6 -6 -6 -6 -6 -6 -6 -6 -7 -7 -8 -8 -8 -8 -9 -9 -9 -10 -10 -11 -11 -10 -9 -8
-2 -3 -3 -3 -4 -4 -4 -5 -5 -5 -5 -5 -5 -5 -6 -6 -6 -6 -6 -6 -5 -5 -4 -5 -5 -5 -5 -6 -7 -7 -8 -8 -8 -8 -9 -9 -9 -9 -9 -9 -9 -8 -8
-4 -4 -4 -4 -4 -4 -4 -5 -5 -6 -6 -6 -6 -6 -6 -6 -6 -6 -6 -6 -5 -5 -5 -6 -6 -6 -6 -7 -7 -8 -9 -9 -9 -9 -9 -9 -9 -10 -9 -9 -9 -8 -8
-5 -5 -5 -5 -5 -5 -5 -5 -5 -5 -6 -8 -8 -8 -8 -7 -7 -7 -6 -5 -6 -6 -6 -6 -7 -7 -7 -8 -8 -9 -9 -10 -10 -10 -10 -10 -10 -9 -9 -9 -9 -9 -8
-5 -6 -6 -6 -6 -6 -5 -5 -5 -5 -5 -6 -7 -8 -9 -9 -8 -8 -7 -6 -7 -7 -7 -8 -8 -8 -9 -9 -10 -10 -11 -11 -11 -11 -11 -11 -11 -10 -10 -10 -12 -12 -10
-6 -6 -6 -5 -6 -5 -5 -6 -6 -6 -7 -7 -7 -7 -7 -7 -8 -8 -9 -8 -8 -9 -9 -9 -10 -10 -10 -11 -11 -12 -12 -12 -12 -12 -12 -12 -12 -11 -11 -11 -11 -10 -10
-6 -6 -6 -6 -6 -6 -7 -7 -7 -7 -8 -9 -11 -12 -10 -9 -9 -10 -10 -10 -10 -10 -10 -11 -11 -11 -11 -11 -11 -12 -12 -12 -12 -13 -13 -13 -13 -12 -12 -12 -12 -12 -12
-6 -7 -7 -7 -7 -7 -8 -8 -8 -8 -9 -10 -11 -12 -11 -11 -11 -11 -12 -13 -13 -13 -12 -12 -12 -12 -13 -13 -13 -13 -13 -13 -14 -13 -14 -14 -13 -14 -13 -13 -13 -13 -12
-7 -7 -8 -8 -9 -9 -9 -9 -9 -10 -10 -11 -11 -11 -12 -12 -13 -13 -14 -14 -14 -15 -14 -14 -15 -15 -15 -15 -14 -14 -14 -15 -15 -15 -15 -14 -14 -14 -14 -14 -14 -13 -13
-8 -9 -9 -9 -9 -10 -10 -11 -12 -12 -11 -12 -12 -13 -13 -14 -14 -15 -15 -15 -15 -16 -16 -17 -17 -16 -17 -16 -16 -16 -17 -17 -17 -18 -17 -16 -15 -15 -15 -15 -14 -15 -15
-9 -9 -9 -10 -10 -11 -11 -11 -12 -12 -12 -13 -13 -14 -14 -15 -15 -15 -16 -17 -17 -17 -18 -18 -17 -18 -18 -18 -19 -19 -18 -18 -19 -18 -18 -18 -17 -18 -17 -16 -16 -15 -15
-10 -10 -11 -11 -11 -11 -11 -12 -12 -13 -13 -14 -14 -14 -15 -15 -16 -16 -17 -18 -18 -18 -18 -19 -19 -19 -19 -19 -20 -19 -19 -19 -20 -19 -19 -18 -18 -17 -17 -16 -17 -16 -15
Height
675 680 687 692 697 702 707 712 714 717 722 725 728 731 734 738 743 747 754 758 762 768 773 778 785 790 790 792 798 803 808 812 815 818 821 824 824 827 828 828 830 830 831
671 676 682 690 694 699 705 708 710 715 720 723 725 729 733 735 739 743 748 752 759 764 770 776 780 786 792 794 800 803 806 810 811 814 817 821 818 821 823 824 824 828 826
669 672 678 686 691 697 702 704 709 713 718 722 724 726 730 733 737 741 745 749 754 760 766 771 777 784 788 790 797 799 804 806 809 811 814 816 817 816 816 814 821 821 822
667 671 676 684 690 695 699 701 707 711 717 720 722 725 729 733 736 740 744 748 753 757 762 767 771 778 782 785 792 796 797 801 803 807 809 810 811 810 811 814 815 815 816
667 672 676 684 690 694 696 700 706 709 714 719 722 724 728 731 734 738 742 746 751 756 760 765 769 774 778 782 787 791 793 795 799 802 803 804 806 806 805 806 808 808 810
667 670 676 683 688 691 693 698 704 708 712 716 721 723 727 730 732 736 740 744 748 753 756 761 764 768 773 777 783 786 790 792 793 796 796 797 797 797 797 799 799 802 807
664 670 677 682 686 689 692 696 701 706 710 714 718 721 724 727 730 734 737 741 744 748 752 756 760 763 768 773 777 780 782 784 787 789 788 789 788 789 789 789 791 792 796
667 672 677 680 683 687 690 695 699 703 708 712 716 719 722 725 728 731 735 739 741 744 747 751 754 758 762 765 768 772 775 776 778 779 780 781 781 782 782 784 786 789 797
673 675 679 680 682 685 689 692 697 701 705 709 713 716 719 722 725 728 732 735 738 740 743 746 749 751 753 757 761 763 767 771 773 773 775 776 775 776 777 781 786 791 799
683 685 683 685 684 688 687 691 694 698 702 707 709 713 717 719 721 725 729 732 734 736 737 739 741 744 747 749 752 756 762 769 772 774 776 776 777 780 782 783 786 789 794
685 689 686 687 685 688 689 690 692 695 698 703 707 712 715 717 718 719 722 726 728 730 733 736 738 740 742 745 747 750 755 764 771 774 777 781 784 785 786 788 790 792 795
707 698 693 691 695 694 693 695 695 697 701 707 710 715 719 720 718 718 718 720 723 726 733 737 739 739 743 747 753 756 761 765 770 775 779 784 787 791 792 793 793 794 798
710 703 698 700 700 700 700 702 703 705 708 712 716 721 724 725 725 723 722 723 725 729 738 743 746 748 749 753 757 765 768 772 774 779 785 790 793 794 797 800 800 799 802
720 717 710 709 710 710 711 711 711 713 715 719 724 728 731 732 732 732 733 735 737 740 745 752 752 756 758 765 771 772 777 780 784 787 791 795 797 800 801 801 803 805 810
732 729 726 727 724 723 725 724 722 723 724 727 731 733 735 738 742 742 742 743 749 751 754 760 766 768 767 776 783 784 784 788 792 794 798 801 804 805 807 807 810 811 810
738 736 736 736 735 734 735 733 735 735 736 738 740 742 745 747 748 749 752 753 758 762 764 765 772 775 777 781 786 791 794 796 798 802 805 805 808 809 811 811 813 811 812
746 745 744 743 742 745 743 744 745 752 750 750 752 753 755 757 757 760 761 764 763 767 772 775 776 779 787 788 790 794 798 804 806 809 808 808 811 812 812 814 814 813 815
753 752 749 749 750 752 752 753 755 757 759 763 763 761 764 765 767 768 769 769 771 775 779 784 785 786 792 792 793 800 802 807 811 814 812 812 813 815 815 816 817 817 816
756 756 756 756 758 759 760 761 765 765 766 769 771 772 774 774 772 773 775 777 779 783 788 791 793 793 795 798 800 803 808 811 812 815 815 817 817 817 819 820 819 819 819
762 762 762 764 765 766 768 768 769 770 773 776 779 779 780 780 780 782 783 786 788 792 796 798 798 800 802 804 807 809 810 812 816 818 818 819 819 820 822 823 821 821 820
768 769 770 768 771 772 772 773 776 777 781 784 787 786 785 785 788 790 792 795 796 799 802 803 804 806 808 810 811 812 815 817 819 820 822 822 823 823 824 823 823 822 821
773 773 772 774 776 776 776 781 783 786 788 789 789 793 793 794 796 798 800 801 804 805 807 808 810 812 813 814 816 818 820 821 822 823 823 823 824 825 825 824 823 822 822
776 777 779 780 782 783 786 789 790 791 793 795 798 798 799 801 802 803 805 807 809 810 811 813 814 815 817 819 820 822 822 823 824 825 825 824 825 825 824 823 824 823 823
781 783 785 785 787 791 792 794 797 797 798 801 802 802 804 807 808 810 811 812 814 815 815 816 817 818 819 821 822 823 823 824 824 824 824 825 825 824 824 824 824 823 823
788 789 789 790 793 796 797 799 801 802 804 805 807 809 810 812 813 814 815 815 817 818 818 820 821 821 820 821 821 822 821 822 822 822 824 823 823 822 823 823 822 822 821
794 795 796 798 799 801 802 804 806 808 810 812 813 814 815 816 817 817 818 818 819 820 821 821 821 821 822 823 821 820 821 821 821 821 821 822 822 822 822 821 821 820 819
Wind_Speed
25 25 22 22 20 17 16 16 16 13 15 15 15 23 30 33 34 36 36 32 33 32 31 33 32 28 18 24 14 18 18 17 15 19 15 15 16 14 8 8 10 9 10
25 26 22 20 20 19 18 17 16 15 14 13 14 18 24 29 33 35 33 32 34 33 32 32 29 26 25 20 19 18 19 23 17 12 18 24 21 21 16 14 10 12 9
24 24 22 21 21 20 19 18 16 15 14 12 13 14 20 24 29 32 32 32 34 33 30 33 29 28 26 25 19 16 18 17 20 18 22 21 21 21 19 17 18 19 16
21 20 20 19 20 20 19 18 17 16 14 14 14 15 16 18 22 27 28 28 29 29 32 32 33 34 32 29 27 24 20 19 19 19 18 20 23 22 19 20 18 18 13
20 18 18 17 17 19 18 17 16 16 16 15 13 13 14 16 20 22 25 27 29 29 27 30 35 40 33 31 30 27 26 22 19 19 18 16 18 18 17 18 22 20 12
20 17 17 17 16 16 16 16 16 15 16 17 16 15 15 15 20 24 26 26 26 28 28 27 31 32 31 28 32 32 24 23 20 20 20 20 24 23 25 26 22 12 5
18 18 17 17 17 15 14 15 16 16 17 17 17 16 18 22 24 25 29 26 27 29 28 27 29 33 34 34 32 34 33 34 35 31 26 25 26 28 27 24 20 13 11
11 11 11 15 15 15 15 14 14 15 16 17 17 17 17 19 22 25 31 28 28 30 31 31 32 33 36 36 36 31 29 26 26 26 23 22 20 19 16 17 18 14 13
18 16 12 12 9 11 14 14 15 14 15 16 16 17 18 20 23 24 27 33 26 26 29 31 33 33 35 39 38 30 17 12 8 10 14 11 8 9 7 10 16 17 6
19 15 14 12 12 9 6 6 11 14 16 14 13 13 16 16 19 22 26 29 26 24 21 20 24 23 21 29 32 30 25 20 14 14 17 16 15 16 14 15 14 15 13
23 18 17 16 18 14 10 5 2 10 15 18 16 12 9 5 10 18 24 29 28 21 12 7 10 19 18 26 25 27 27 24 24 26 26 25 24 23 22 20 18 17 16
12 19 23 23 18 17 17 14 13 17 22 23 24 22 19 17 9 3 6 12 20 18 17 17 17 13 17 18 18 27 31 31 30 29 27 24 23 22 20 20 19 18 17
22 27 27 26 25 22 21 21 21 21 22 19 20 20 21 25 29 26 25 25 28 32 33 35 36 37 38 37 32 31 32 30 29 26 22 18 18 17 16 16 17 18 16
21 24 28 31 30 28 27 25 23 21 20 20 19 19 18 21 23 26 31 35 37 40 34 32 34 35 36 36 32 30 25 20 20 20 18 16 14 12 12 12 12 11 10
16 19 22 24 29 34 35 28 29 28 22 21 19 19 19 19 18 21 24 27 29 32 32 29 27 26 27 24 21 20 19 17 17 16 15 13 12 12 11 9 8 8 9
14 17 19 21 24 26 29 37 42 40 38 34 31 30 29 29 29 29 29 29 28 25 25 24 22 21 21 20 18 17 16 15 14 13 12 13 12 11 10 9 8 8 8
13 14 16 17 19 20 23 25 28 34 37 37 34 32 30 29 28 28 28 28 26 24 24 21 21 20 17 17 17 16 15 13 12 11 12 12 11 10 9 8 7 7 6
15 16 17 18 18 18 19 20 20 21 23 26 29 28 26 24 23 22 22 22 24 22 21 18 18 18 16 17 17 15 14 12 11 10 11 10 9 8 8 7 6 5 4
15 16 16 17 17 18 18 19 19 19 19 18 17 21 22 24 26 24 21 21 20 19 18 17 16 17 16 16 15 14 12 12 11 10 10 9 8 7 7 6 6 5 2
17 16 15 16 16 16 16 17 17 17 17 16 16 15 13 15 19 20 20 19 19 18 16 16 16 16 15 14 14 13 12 11 10 9 9 8 7 6 5 4 3 2 3
14 15 14 16 15 15 16 16 15 16 16 17 17 16 16 18 18 18 18 18 18 17 15 15 15 14 12 11 11 10 9 9 8 7 6 6 5 5 3 3 2 3 3
12 13 15 15 14 15 16 15 15 15 16 17 17 18 17 19 18 17 17 17 16 15 13 13 12 11 11 10 9 8 7 7 6 5 5 5 4 3 2 2 2 2 3
13 14 14 15 15 15 15 14 14 15 15 15 14 14 15 16 16 16 15 14 13 13 12 11 10 10 8 8 7 6 5 5 4 3 3 3 2 1 1 1 2 3 3
13 13 13 14 14 13 14 14 15 15 15 14 14 14 14 13 14 14 13 12 11 11 10 10 9 8 8 7 6 5 4 4 2 1 2 1 0 2 2 2 3 4 5
12 12 13 13 13 13 13 13 13 13 13 12 12 12 12 11 11 11 10 9 9 8 8 8 7 7 6 6 4 3 3 2 2 2 1 2 3 3 3 3 4 5 6
12 12 12 12 12 11 11 11 11 11 11 11 10 10 9 9 9 8 7 7 7 6 6 5 4 4 4 3 2 0 1 2 2 3 3 4 4 5 5 6 6 7 7
Wind_Direction
186 180 185 191 189 184 189 186 179 177 193 196 198 196 201 203 197 195 198 193 189 192 191 190 198 206 192 186 208 224 239 234 240 257 259 244 237 247 239 262 260 272 268
183 179 179 183 182 180 184 178 172 180 188 195 194 208 209 199 197 194 194 195 197 195 197 195 197 202 209 200 212 219 224 227 226 245 258 253 261 256 258 272 280 269 238
176 170 169 177 176 182 183 174 174 177 189 190 187 191 202 198 197 196 196 195 197 202 200 203 200 207 212 204 218 221 225 233 237 235 257 264 260 257 258 275 267 261 261
166 166 168 168 177 182 180 170 178 175 188 190 192 186 190 197 201 201 198 198 199 198 200 198 196 212 216 212 221 229 236 238 240 239 254 261 265 264 263 246 231 239 223
159 162 162 172 185 184 175 174 181 182 188 193 192 188 194 193 197 198 198 200 202 206 207 204 207 219 221 220 222 231 236 234 232 239 245 256 255 240 230 242 230 224 199
155 153 157 171 182 180 172 175 177 187 192 189 194 194 194 201 212 211 201 201 201 206 210 207 210 215 220 224 233 237 234 233 234 236 249 248 254 240 250 245 230 194 176
151 154 170 173 179 180 173 177 182 191 196 197 198 196 201 210 218 217 208 200 196 201 205 207 212 221 226 231 233 234 238 245 248 247 240 243 246 242 241 232 217 197 178
104 124 161 170 172 174 177 181 188 196 200 201 201 204 209 211 216 221 219 209 206 207 209 212 215 221 227 230 231 229 230 235 242 246 248 248 247 243 242 242 227 183 143
59 63 59 75 116 179 180 186 193 196 201 205 208 205 205 215 223 225 222 221 225 216 219 223 226 226 236 234 228 213 185 144 120 136 125 139 195 216 206 215 144 130 91
36 43 62 54 71 75 98 159 210 205 200 193 186 188 199 206 225 229 230 228 228 232 231 223 228 228 233 228 220 200 156 145 146 120 106 111 109 109 116 126 134 119 119
32 43 55 61 55 55 61 72 107 177 154 140 126 109 117 178 221 234 231 228 225 215 205 209 234 241 231 187 192 178 154 148 126 114 105 99 96 94 92 96 102 98 98
22 53 52 53 54 55 65 72 91 119 114 105 100 84 78 67 64 112 212 216 214 181 130 120 121 135 138 147 142 141 139 135 127 114 103 90 87 82 80 86 91 97 97
35 43 51 53 51 52 57 62 73 90 88 83 84 81 72 75 75 88 104 120 124 111 106 104 100 97 100 100 105 119 125 121 113 100 96 95 96 100 98 92 90 92 91
46 49 52 53 53 53 54 58 63 69 80 83 83 81 79 77 86 90 93 93 96 105 105 101 103 105 104 109 113 113 107 104 106 107 107 110 113 111 106 105 104 104 93
61 63 64 66 67 67 62 62 67 71 82 87 85 91 93 83 85 101 102 100 107 106 103 97 95 95 91 91 89 89 91 92 94 99 103 105 101 99 96 99 101 109 101
62 65 70 72 72 75 76 72 69 75 79 81 84 88 89 97 98 96 97 101 102 103 99 98 94 93 94 96 92 88 85 89 94 100 108 107 106 106 104 102 108 104 103
68 76 77 80 79 80 81 83 84 71 72 75 78 83 87 91 90 94 94 92 89 93 89 90 91 92 93 94 95 95 91 87 96 103 103 100 101 98 101 103 96 98 93
70 71 77 78 83 86 83 84 85 86 82 72 68 75 79 83 85 86 85 85 81 80 86 90 93 96 96 95 95 94 95 97 96 95 93 95 98 104 104 101 95 89 89
74 75 80 83 85 89 90 91 93 91 89 89 81 72 74 79 77 75 77 83 86 87 89 92 93 94 94 96 98 99 103 101 99 97 94 92 88 91 88 87 81 69 59
74 80 87 90 90 89 90 89 88 86 82 79 73 71 79 81 74 73 75 81 84 85 86 88 87 88 91 95 96 99 98 96 95 96 96 94 86 87 92 92 75 57 36
80 81 83 83 82 82 82 80 81 83 84 81 73 68 77 85 82 80 79 78 81 81 82 84 83 86 89 89 92 93 95 96 98 99 99 102 100 94 89 77 66 37 13
79 77 75 76 77 75 77 80 82 85 86 86 80 73 77 83 84 83 80 78 77 79 80 84 85 83 83 87 91 99 104 107 109 113 116 109 95 84 77 61 38 5 343
76 79 80 80 80 82 81 82 86 89 89 87 86 82 80 81 83 85 84 82 81 80 78 81 84 85 84 90 93 97 105 108 113 114 118 116 107 85 36 9 341 322 320
74 78 84 84 83 84 85 86 87 87 91 88 85 84 84 85 85 85 85 83 80 77 73 73 83 91 88 86 86 87 97 101 98 115 105 134 318 331 306 293 292 300 303
74 79 79 81 83 86 87 88 88 87 87 88 89 90 91 92 91 89 85 82 80 80 74 78 83 81 87 106 110 120 144 135 151 146 322 309 288 288 285 282 289 293 295
76 80 83 87 89 92 95 97 96 95 94 93 93 93 93 94 92 90 85 85 86 86 83 80 78 98 83 57 51 240 262 272 288 286 283 287 287 281 282 283 287 290 290